ELECTRON KICK STAGE R/B

Last updated on Thu Oct 16 2025 00:02:08 GMT+0000 (Coordinated Universal Time)

1 65973U 25229C 25288.71002003 .00000935 00000+0 82690-4 0 9993 2 65973 41.9834 200.3404 0041999 254.4761 105.1425 15.02290201 151

Satellite not in orbit